Reflectivity
-19 2 -14 -20 -3 8 8 8 9 -20 7 7 2 -6 2 8 -5 -20 -20 -20 -20 -20 -20 -20 -20 -20 -20 -20 -20 -20 -20 -20 -20 -20 -20 -20 -20 -20 -20 -20 -20 -20 -20 -20 -20
-19 -14 -20 -20 -20 -20 9 8 8 -1 9 -15 1 -1 9 -20 -14 -20 -20 -20 -20 -20 -20 -20 -20 -20 -20 -20 -20 -20 -20 -20 -20 -20 -20 -20 -20 -20 -20 -20 -20 -20 -20 -20 -20
-20 -18 -20 -20 -15 -20 9 -20 10 9 10 13 -16 -6 10 -20 -11 -20 -20 -20 -20 -20 -20 -20 -20 -20 -20 -20 -20 -20 -20 -20 -20 -20 -20 -20 -20 -20 -20 -20 -20 -20 -20 -20 -20
-20 -20 4 -20 -16 -20 -20 4 -20 -16 9 15 7 -20 7 -16 -20 -20 -20 -12 11 -20 -20 -20 -20 -20 -20 -20 -20 -20 -20 -20 -20 -20 -20 -20 -20 -20 -20 -20 -20 -20 -20 -20 -20
-20 -20 -20 -20 -20 -20 -20 -20 -20 -20 -20 -20 11 -16 9 -2 -15 -20 10 -20 -20 -12 12 -20 -20 -20 -20 -20 -20 -20 -20 -20 -20 -20 -20 -20 -20 -20 -20 -20 -20 -20 -20 -20 -20
-20 -2 -20 -20 -20 -20 -20 -20 -20 -20 -20 -20 -8 8 10 -20 -20 -20 -20 -20 -20 -20 -20 15 -20 -20 -20 -20 -20 -20 -20 -20 -20 -20 -20 -20 -20 -20 -20 -20 -20 -20 -20 -20 -20
-1 -20 12 8 -20 -20 -20 -20 -20 -20 -20 -20 -17 8 11 -20 -20 -20 -20 -20 -20 -20 -20 -20 5 -20 -20 -20 -20 -20 -20 -20 -20 -20 -20 -20 -20 -20 -20 -20 -20 -20 -20 -20 -20
1 5 7 -20 -20 -20 -3 -20 -20 -20 -20 -20 -17 9 3 -20 -20 -20 -20 -20 -20 -20 -20 -16 -16 -9 -20 -20 -20 -20 -20 -20 -20 -20 -20 -20 -20 -20 -20 -20 -20 -20 -20 -20 -20
-11 -13 3 -6 2 -20 0 -20 -20 -20 -20 -20 -20 8 -18 -20 -20 -20 -20 -20 -20 -20 -20 8 22 -9 -4 -20 -20 -20 -20 -20 -20 -20 -20 -20 -20 -20 -20 -20 -20 -20 -20 -20 -20
-12 -20 -20 -7 -20 -20 -16 -20 -20 -20 -20 -20 10 7 -20 -20 -20 -20 -20 -20 -20 -20 12 22 23 17 13 6 -20 -20 -20 -20 -20 -20 -20 -20 -20 -20 -20 -20 -20 -20 -20 -20 -20
9 -18 -12 -20 -20 -20 -20 -20 -20 -20 -20 -20 -20 -20 -20 -20 -20 -20 -20 -20 -20 -20 15 11 22 20 -17 -6 -20 -20 -20 -20 -20 -3 -20 -20 -20 -20 -20 -20 -20 -20 -20 -20 -20
12 -18 -11 -20 -20 -20 -20 -20 -14 -4 -14 -12 -20 -20 -20 -20 -20 -20 -20 -20 -11 -20 -18 16 22 -0 -20 -20 -20 -20 -20 -20 -20 14 0 -20 -20 -20 -20 -20 -20 -20 -20 -20 -20
27 16 5 -20 -18 -20 -20 -20 -20 -20 -20 -20 -20 -20 -20 -20 -20 -20 -20 -20 -17 7 -9 13 15 -6 -20 -20 -15 -20 -20 -20 -20 4 22 -0 -20 -20 -20 -20 -20 -20 -20 -20 -20
31 25 13 -20 -18 -16 -20 -20 -20 -20 -20 -20 -20 -20 -20 -20 -20 -20 -20 -20 -20 5 -16 -12 -7 9 12 4 6 -19 -20 -20 -15 2 14 12 -18 -20 -20 -20 -20 -20 -20 -20 -20
32 26 23 -14 -20 -20 -20 -20 -20 -20 -20 -20 -20 -20 -20 -20 -20 -20 -20 -20 -20 10 19 -20 -9 11 21 16 -13 18 -20 -19 -0 3 12 -1 -20 -20 -20 -20 -20 -20 -20 -20 -20
31 28 24 4 -13 -20 -20 -20 -20 -20 -20 -20 -20 -20 -20 -20 -20 -20 -20 -20 -20 -20 34 7 -20 -7 -1 -4 -20 -13 -10 -14 2 12 22 16 -20 -20 -20 -20 -20 -20 -20 -20 -20
32 29 22 11 6 -20 -18 -9 -20 -20 -20 -20 -20 -20 -20 -20 -20 -20 -3 -20 -7 7 4 33 10 -20 7 13 1 8 33 12 25 21 15 -6 -20 -20 -20 -20 -20 -20 -20 -20 -20
28 27 21 22 14 -2 -12 -11 -20 -19 -20 -20 -20 -20 -20 -20 -20 -20 -20 3 -6 -9 15 27 25 -1 10 -14 23 -11 37 27 12 15 -4 -20 -20 -20 -20 -20 -20 -20 -20 -20 -20
28 23 20 23 14 9 -2 -20 -20 -20 -20 -20 -20 -20 -20 -20 -20 -20 -20 -4 -18 31 17 29 27 19 -19 -20 -20 13 0 -10 21 10 -20 -20 -20 -20 -20 -20 -20 -20 -20 -20 -20
20 30 22 28 19 11 -12 -19 -20 -20 -20 -20 -20 -20 -20 -20 -20 -20 -20 -3 -18 6 29 19 27 9 -11 18 -6 15 -20 6 21 25 2 -20 -20 -20 -20 -20 -20 -20 -20 -19 -20
28 28 19 20 14 19 -5 -20 -20 -20 -20 -20 -20 -20 -20 -20 -20 -20 -20 -8 -12 9 25 28 22 29 20 20 -0 5 23 22 7 14 -18 -20 -20 -20 -20 -20 -20 -20 -7 2 -8
33 18 19 13 11 6 -13 -20 -20 -20 -20 -20 -20 -20 -20 -20 -9 -19 -20 -20 -7 -7 11 18 18 15 39 20 -20 -20 -20 18 3 14 -20 -20 -20 -20 -20 -20 -20 -20 1 1 -4
34 16 23 7 -2 -6 -17 -20 -20 -20 -20 -15 -20 -13 10 12 13 14 15 -12 -4 23 -14 11 17 1 13 32 18 8 -8 -7 -20 -20 -20 -18 -20 -20 -20 -20 -20 -20 -18 -11 -20
31 16 26 29 -7 -20 -20 -20 -20 -16 -7 -10 -1 8 8 -20 -9 13 -18 -10 -9 9 -17 23 11 3 14 27 29 28 21 21 7 -8 -20 -18 -20 -20 -20 -20 -20 -20 -20 -20 -20
31 7 -20 24 13 -0 5 -20 -20 -20 -16 -20 -20 -3 1 11 17 -1 -20 -20 -20 -15 7 35 10 16 15 14 26 22 23 23 -1 -20 -20 -20 -20 -20 -20 -17 -17 -20 -20 -20 -20
20 -7 5 17 18 16 14 -8 -20 -20 -20 -20 -20 -20 -20 5 -11 -8 -20 -20 -20 -20 -20 -8 -6 -2 8 5 17 23 24 34 27 -20 -20 -20 -20 -20 -20 -20 -19 -17 -20 -20 -20
31 18 13 16 7 10 -13 -12 -20 -20 -20 -20 -20 -20 -20 -20 -20 -20 -20 -20 -20 -20 -20 -19 -2 4 -8 8 -15 4 15 28 29 16 -16 -20 -20 -20 -20 -20 -20 -20 -20 -20 -20
Wind_Speed
17 17 18 18 17 19 19 19 18 19 20 20 20 20 19 20 20 13 19 15 10 15 11 4 1 4 3 4 4 4 4 8 8 7 6 2 5 2 1 7 2 6 2 1 20
17 16 17 18 18 20 19 20 19 19 18 20 20 20 19 19 17 25 22 23 19 20 14 10 7 5 3 5 4 6 9 11 7 5 4 2 4 7 6 6 4 3 4 12 19
17 18 17 18 17 18 19 20 20 21 21 21 21 21 19 15 14 13 21 27 27 28 22 14 7 6 5 4 6 6 15 9 5 8 3 3 2 4 6 4 7 14 13 17 18
16 17 18 17 18 18 20 20 21 22 21 20 20 21 21 4 11 5 1 13 16 12 17 15 7 8 7 12 6 6 8 9 16 5 3 3 2 2 6 5 2 4 14 18 20
16 16 17 16 17 18 19 21 22 22 23 23 21 19 12 8 18 21 29 22 11 4 11 15 14 13 13 8 7 8 7 9 8 5 5 2 6 4 5 7 3 9 16 19 20
16 16 16 15 16 18 20 22 22 22 25 23 22 19 9 25 6 12 9 11 7 8 8 10 7 10 7 10 14 6 12 14 7 14 6 6 7 5 6 3 3 10 16 17 20
16 16 15 14 16 17 20 22 24 25 26 25 22 13 17 26 7 16 20 14 9 9 13 9 16 6 6 2 9 8 6 7 11 15 7 6 13 9 10 5 5 9 11 12 15
15 15 14 14 15 17 19 23 26 28 28 25 21 13 18 4 9 13 15 19 11 13 16 13 7 8 7 3 2 6 4 17 10 8 8 15 22 9 10 8 11 10 9 12 15
14 14 14 14 14 17 19 23 29 27 23 20 10 9 12 7 4 8 13 14 12 8 12 14 5 8 5 11 3 6 7 13 8 13 9 14 8 20 10 11 11 11 12 12 13
14 12 13 12 13 15 18 22 23 13 7 4 4 3 5 7 4 3 1 8 11 10 8 11 8 8 7 11 18 11 17 5 9 9 9 7 7 7 4 13 18 16 13 13 13
15 13 11 11 11 13 8 5 6 4 6 6 13 17 22 15 17 12 5 11 7 9 13 19 14 12 22 24 19 10 6 16 11 4 7 18 17 19 13 7 11 12 13 14 15
16 13 9 9 8 9 3 3 5 4 13 21 21 27 28 15 21 24 17 10 9 18 20 14 24 20 17 18 16 14 7 8 2 4 5 2 11 15 13 13 13 14 13 14 12
16 12 8 6 6 3 2 3 0 0 6 13 7 7 7 9 10 17 11 8 14 17 23 24 11 23 22 17 18 21 20 10 2 4 1 4 7 9 6 9 13 12 14 15 17
16 12 8 4 0 2 3 2 1 2 5 9 4 5 1 4 6 15 10 13 11 20 23 22 24 21 25 24 17 21 17 15 10 4 5 5 7 7 6 13 11 15 14 16 17
16 12 9 9 4 3 3 3 4 3 6 5 3 3 3 2 9 5 7 11 22 18 13 23 23 30 25 21 19 10 12 17 16 13 3 3 5 6 6 12 13 13 15 16 17
15 12 8 4 2 4 2 3 4 7 11 6 2 5 7 5 7 7 6 7 5 16 25 23 19 24 25 20 23 14 10 13 11 9 9 19 13 11 15 7 6 14 13 15 13
12 13 9 7 4 5 3 4 6 4 4 4 3 7 13 9 5 9 8 9 10 10 23 11 27 15 13 21 20 19 8 6 7 8 8 19 13 21 7 5 14 15 15 10 10
13 12 7 6 7 6 4 5 5 5 6 6 6 13 9 6 3 5 12 10 8 17 19 13 14 31 18 21 11 22 16 6 7 7 13 10 14 9 18 23 15 13 11 7 8
12 3 3 3 8 5 4 2 8 6 4 5 10 5 5 2 5 6 3 6 3 11 6 8 17 14 21 11 26 17 13 14 5 4 1 6 7 6 4 8 11 15 11 15 12
4 4 3 6 10 7 3 8 5 4 2 4 2 3 3 5 8 5 3 5 5 3 1 6 11 5 24 16 24 15 21 11 6 9 7 5 5 8 11 14 13 14 15 15 9
4 4 2 10 6 4 5 6 4 7 3 5 4 5 5 5 6 4 7 7 3 3 4 7 7 6 16 21 24 18 16 6 5 4 6 5 7 7 13 18 17 17 13 7 8
4 4 6 10 4 3 4 6 6 5 6 8 4 9 10 5 5 3 6 6 4 2 4 3 5 6 8 18 23 24 21 19 9 7 4 1 8 3 11 12 10 8 3 6 7
5 4 6 5 6 5 3 3 5 5 7 5 6 9 5 4 5 6 6 10 6 3 2 2 2 5 7 4 15 20 20 21 10 5 13 11 6 2 2 6 6 6 6 5 6
4 4 3 3 1 6 4 4 5 7 6 5 5 4 4 5 6 5 6 3 8 9 14 4 4 6 10 5 4 7 17 20 22 16 15 13 17 7 4 5 5 6 4 4 6
3 4 3 6 6 6 6 3 3 4 5 5 3 4 1 4 4 2 4 8 6 6 7 2 4 5 11 16 12 13 13 16 23 20 17 20 24 17 10 7 7 4 5 5 6
5 5 1 3 5 12 11 8 13 12 5 4 7 11 7 5 4 4 5 1 6 3 3 3 7 14 13 16 10 8 12 12 17 15 11 13 19 6 9 7 7 8 7 7 7
3 2 5 8 7 8 9 14 11 8 7 11 9 1 5 10 7 6 6 12 14 12 2 3 4 4 5 7 16 10 14 15 8 18 16 17 30 11 11 17 17 9 7 9 9
Wind_Direction
334 340 338 335 335 335 336 333 336 334 332 327 325 322 320 312 318 296 268 242 212 254 294 316 220 213 140 212 174 147 198 222 209 180 237 182 200 164 115 131 207 178 147 51 137
326 334 332 332 338 326 333 332 328 331 326 322 322 322 319 322 306 276 257 256 241 250 254 243 229 177 211 205 199 185 216 222 207 207 227 284 220 167 159 147 196 159 66 130 146
322 328 325 329 332 328 330 325 327 324 322 322 325 324 322 331 303 270 258 227 237 250 239 226 233 177 203 184 197 191 229 207 238 228 209 261 232 187 138 208 201 191 163 157 162
314 317 323 326 326 332 325 326 323 319 313 313 319 321 322 340 274 301 90 90 356 304 199 192 193 197 192 209 208 220 222 192 231 231 234 251 305 272 193 211 252 209 154 157 173
305 309 314 316 321 323 320 319 318 316 314 309 309 313 321 247 248 296 296 316 349 347 163 186 201 197 205 183 200 224 222 210 201 208 222 317 256 252 253 255 356 140 153 177 185
295 297 299 308 315 314 315 317 314 311 309 304 297 297 292 266 270 259 312 337 308 289 258 209 212 204 227 216 192 196 213 227 200 233 234 216 258 148 275 180 158 168 181 183 192
289 292 296 306 309 313 312 313 311 307 301 297 289 281 262 249 282 301 307 297 298 312 266 233 227 224 171 208 207 209 216 237 221 220 212 165 259 209 228 164 206 209 193 191 202
287 295 299 301 312 308 312 313 310 301 295 292 284 266 262 272 254 266 275 284 287 237 264 282 258 223 205 281 123 177 193 236 210 173 222 196 249 232 224 183 212 216 211 210 198
279 294 297 305 310 310 315 316 305 299 296 289 276 219 266 302 219 239 247 258 273 250 233 261 235 203 149 215 276 204 224 222 236 199 183 200 223 240 191 191 221 218 214 215 219
273 286 291 304 311 313 320 314 297 317 327 260 226 207 257 248 220 274 336 295 246 242 262 219 229 191 171 176 213 206 219 203 205 200 197 181 222 255 180 198 210 212 215 218 220
261 269 283 300 312 320 341 346 5 337 34 251 266 271 279 276 297 268 267 323 234 228 220 200 216 204 193 212 217 172 193 219 224 203 170 221 227 227 221 195 222 224 221 223 224
250 257 270 296 309 331 84 72 129 269 291 266 244 252 261 285 290 273 294 270 205 212 217 213 220 209 213 216 219 224 206 212 225 162 182 169 242 243 211 229 224 224 228 228 227
242 246 251 274 311 59 162 211 169 303 278 293 230 239 245 203 248 285 213 211 234 223 218 222 199 212 207 206 203 220 222 204 155 139 87 328 251 256 217 216 236 238 237 237 233
237 235 237 134 203 192 285 210 347 177 309 280 268 264 198 225 263 283 223 214 229 237 209 235 226 215 212 216 204 219 217 217 207 140 217 185 278 252 227 225 223 230 223 230 234
228 222 224 159 162 197 231 334 355 86 4 263 258 149 72 53 291 317 320 196 231 233 191 216 219 210 220 203 199 228 194 209 214 219 160 203 269 250 227 228 236 239 230 230 231
216 215 192 119 103 222 92 28 61 49 254 312 326 348 8 332 302 329 359 246 271 262 255 246 215 216 215 204 206 191 191 192 200 194 227 229 227 223 234 187 226 239 235 227 220
196 218 182 151 197 157 129 46 40 157 331 301 353 345 344 346 323 351 334 293 228 213 247 242 235 205 192 210 190 198 194 158 201 191 230 208 216 242 250 214 214 228 240 229 220
192 205 192 172 148 142 78 61 157 233 264 313 353 327 301 1 292 316 336 343 270 256 281 219 218 208 184 200 183 187 190 161 162 157 226 142 216 232 209 231 233 228 238 246 233
174 97 134 184 155 125 98 123 213 216 229 329 329 301 319 57 327 337 278 278 277 4 334 292 218 183 198 181 174 190 206 179 81 343 40 175 270 277 227 232 229 240 217 237 235
115 134 165 148 147 131 147 223 228 224 298 61 271 269 266 294 336 11 278 250 286 47 255 292 299 218 190 180 196 181 192 182 206 174 227 220 267 212 193 209 214 229 229 225 223
97 136 107 137 124 176 216 213 221 236 216 199 227 258 251 284 233 248 251 281 85 334 346 299 248 325 198 197 185 197 194 183 125 204 223 168 245 206 191 212 213 225 224 192 200
116 159 165 158 169 192 189 188 211 219 214 236 237 244 247 257 259 253 247 233 139 267 323 336 295 304 254 200 206 196 199 185 191 174 214 216 243 285 217 207 224 239 102 211 210
131 132 187 178 198 196 278 233 227 215 213 216 232 215 218 247 283 228 309 6 42 288 271 309 38 330 284 227 211 203 205 193 204 121 211 216 233 313 188 244 228 232 213 210 163
137 154 190 206 186 143 152 230 232 207 229 227 256 267 270 261 232 281 318 300 303 278 265 212 197 215 260 0 287 294 226 207 204 206 212 209 234 234 248 241 239 213 202 197 178
160 201 194 179 195 171 144 171 214 229 217 206 240 242 269 289 346 303 304 318 311 353 6 279 265 239 278 296 276 261 261 251 201 210 212 214 223 211 216 232 235 176 160 177 174
152 157 139 172 148 194 186 197 226 238 202 211 247 270 261 208 245 282 288 308 270 312 33 15 300 317 294 292 296 298 252 247 219 201 239 253 258 157 222 224 251 190 185 189 188
154 166 132 172 170 185 191 201 207 205 235 234 248 10 274 263 255 257 234 262 252 267 223 259 250 279 264 318 308 293 205 186 222 218 213 234 239 174 211 216 228 253 199 205 207